TITAN 3C TRANSTAGE DEB, 5991

Orbit data source: Space-Track

TITAN 3C TRANSTAGE DEB, 5991 is space debris in HEO originally from a launch on Tue, 21 Dec 1965 UTC launched from the Air Force Eastern Test Range (AFETR). Debris objects in space refer to the collection of defunct objects orbiting the Earth. Examples of debris include non-operational satellites, rocket bodies, and fragments generated from explosions, collisions, or faulty payload assembly.

Loading next visibility...
Identifier
5991, 1965-108R
Orbit
HEO
Country
Flag of USUS
Related business
Manufacturer
Unknown
Mission
Spacecraft
Bus & Motor
Unknown
Mass
Unknown
Launch date (UTC)
1965-12-21 (60 years ago)
Launch vehicle
Unknown
Launch site
Air Force Eastern Test Range (AFETR)
Object type
Payload
Rocket body
Debris
Shape & HBR
Unknown shape, 0.3 m
Radar Cross Section
Medium (>0.1 m² and <1 m²)

Expand to show TLE details & history
Last TLE update: 2 days ago

TLE from 2 days ago
0 TITAN 3C TRANSTAGE DEB
1 05991U 65108R   26118.14749190 -.00000029  00000-0  00000-0 0  9999
2 05991  27.7888 284.7763 6571279 187.1006 356.2390  2.63614093116092
Epoch: 2026-04-28T03:32Z
TLE epoch observation values (Epoch: 2026-04-28T03:32:23.300Z)
Latitude
7.43227°
Longitude
-178.73177°
Altitude
1,481.11 km
Speed
9.134 km/s
True Right ascension
06h 01m 58s
True Declination
7° 23' 32"
Sunlit
Object was in daylight at epoch
Visualization orbit readout
Latitude
Unknown
Longitude
Unknown
Altitude
Unknown
Speed
Unknown
Apparent Right ascension
Unknown
Apparent Declination
Unknown
Sunlit
N/A
Visualization observer readout
Local Sidereal Time
18:35:18
Azimuth
Unknown
Elevation
Unknown
Doppler factor
Unknown
Orbital elements
Apogee altitude
30,308.437 km
Perigee altitude
1,212.588 km
Semi-major axis
22,138.649 km
Eccentricity
0.65713
Inclination
27.7888°
RAAN
284.7763°
Arg. of periapsis
187.1006°
True anomaly
336.42452°
Mean anomaly
356.239°
Eccentric anomaly
349.15479°
Mean motion
0.6589 °/min
Orbital period
546.37 mins
BSTAR
0
Loading maneuver chart data...
Computing Atmospheric mass density...

Documentation

Showing up to 5 results
|